User: anonymous   Login
Location: Unspecified
(0.0000°N, 0.0000°E)
Time: 13:03:03
(UTC+00:00)
Language:

Vela 4A - Orbit

View from above orbital plane
View from above orbital plane
View from above satellite
View from above satellite

Ground track
Ground track

The orbit data is extracted from the following two-line orbital elements,

1 02765U 67040A   16046.90690412 -.00001057  00000-0  00000+0 0  9998
2 02765   5.3325   5.6936 4698855 187.5033 355.1896  0.21531764 38288
Epoch (UTC): 15 February 2016 21:45:56
Eccentricity: 0.4698855
inclination: 5.3325°
perigee height: 55954 km
apogee height: 166455 km
right ascension of ascending node: 5.6936°
argument of perigee: 187.5033°
revolutions per day: 0.21531764
mean anomaly at epoch: 355.1896°
orbit number at epoch: 3828

The dashed part of the orbit path shows where the satellite is in the earth's shadow,  

DLR